RH
38 40 43 44 41 40 40 43 41 40 39 38 36 35 34 34 34 35 33 31 32 44 52 51 52 53 54 53 53 63 65 67 69
40 44 53 57 55 56 52 51 46 45 40 36 40 39 39 39 37 34 35 36 35 32 32 43 53 54 61 60 58 57 60 60 62
58 45 49 52 50 55 52 58 61 51 52 50 47 50 44 42 40 42 38 38 41 42 39 34 34 40 47 58 64 66 65 61 62
91 85 71 63 65 57 38 39 47 53 46 43 50 53 49 48 40 47 42 33 33 36 36 38 37 33 34 37 44 60 65 66 67
81 74 65 58 51 42 42 49 54 54 44 34 37 49 72 75 70 50 37 34 31 28 24 24 28 36 34 34 32 36 48 53 59
89 76 57 54 46 44 51 41 35 34 32 30 31 36 38 35 26 23 18 13 11 11 11 11 12 18 30 36 35 36 39 43 47
67 54 40 48 50 56 39 27 25 24 24 24 23 19 16 14 13 13 13 14 15 16 16 14 13 12 13 23 34 39 42 44 49
47 48 52 37 32 26 23 16 12 12 13 14 14 15 15 16 17 17 16 16 15 16 17 19 21 21 19 16 14 15 23 30 34
62 47 26 22 20 17 12 12 11 12 13 14 16 17 18 17 18 17 16 17 17 17 17 19 20 19 19 19 20 19 16 15 15
29 22 15 15 13 14 13 13 13 18 20 20 20 19 18 18 18 16 16 16 17 17 18 19 20 20 20 19 20 21 22 18 15
13 12 13 15 18 16 14 14 14 16 17 18 16 16 16 16 17 17 16 18 20 21 22 23 24 24 23 23 22 21 20 20 19
14 14 17 19 18 15 14 14 16 17 17 18 18 17 18 19 22 24 27 24 24 27 26 24 24 26 28 29 29 26 26 24 22
15 17 20 19 16 14 13 14 16 18 20 25 28 30 32 35 43 42 37 44 49 48 48 46 43 41 40 43 43 40 36 34 33
18 21 20 17 16 16 16 22 29 28 29 30 33 40 39 41 47 51 55 55 57 56 58 59 55 50 47 45 44 45 43 41 38
22 24 21 18 18 20 22 27 31 31 37 44 47 44 47 48 46 42 46 52 55 56 56 52 49 47 47 51 51 48 46 45 44
28 26 24 22 28 38 44 61 62 65 60 51 75 78 75 72 75 72 65 65 71 80 65 64 59 57 53 53 53 56 54 47 42
32 29 26 29 40 49 47 56 86 97 89 90 63 57 61 66 66 74 81 94 99 85 80 82 87 85 80 82 86 90 74 70 61
34 32 27 29 29 41 53 87 94 98 99 70 64 64 73 74 68 62 58 56 56 61 68 69 63 60 74 75 73 86 100 92 78
36 32 29 32 38 45 56 71 82 93 84 78 71 67 66 68 77 66 58 60 57 54 54 58 63 65 63 64 88 100 86 88 88
39 33 33 32 32 34 50 61 80 89 80 80 74 77 86 87 84 93 85 78 64 59 55 58 65 69 73 71 65 64 68 69 60
Wind_Speed
34 34 35 37 38 39 42 42 42 46 47 46 45 46 47 48 51 53 53 51 52 54 55 54 53 51 51 49 48 46 45 44 44
40 39 40 40 43 45 47 46 48 50 50 50 52 52 54 54 54 57 58 57 56 57 60 60 60 57 56 56 55 54 53 53 51
45 44 46 46 47 48 50 52 58 57 58 59 59 59 62 61 60 59 62 64 64 64 65 65 67 65 63 63 59 59 59 60 59
49 48 49 51 53 53 56 59 60 62 64 66 66 68 68 68 67 66 68 68 70 70 70 72 72 71 71 68 66 63 65 64 63
51 53 54 56 57 60 66 66 69 70 71 73 73 73 75 76 77 78 75 74 75 74 73 73 76 77 76 74 72 69 68 68 69
57 58 59 64 63 68 69 75 76 74 76 76 75 76 78 77 76 74 72 69 69 69 69 70 71 74 77 79 79 76 75 74 74
62 62 67 64 70 72 77 78 75 74 73 72 73 73 72 68 65 62 61 61 62 63 63 66 69 71 73 76 79 83 83 80 79
65 68 71 74 74 73 71 66 62 63 65 65 63 62 59 56 53 51 52 52 52 53 55 57 58 59 62 67 74 79 80 80 80
70 73 74 71 63 59 58 55 58 58 57 54 50 47 44 40 38 37 38 37 36 35 37 40 45 49 55 59 59 64 74 77 79
71 68 60 58 55 53 49 50 43 38 35 34 35 35 36 37 37 38 37 37 37 37 37 37 36 37 39 42 46 51 56 64 72
64 63 61 56 52 46 50 36 34 31 31 32 34 35 36 37 36 34 32 32 31 32 32 32 33 35 37 38 40 43 45 49 54
59 58 54 50 44 39 37 32 29 30 29 30 29 29 28 28 29 27 27 27 26 26 27 28 29 30 32 32 34 38 41 45 48
60 54 48 44 39 39 36 30 24 23 23 25 27 27 27 27 27 29 30 28 28 28 29 29 30 30 30 31 32 34 34 35 36
56 47 41 38 38 34 28 23 23 24 25 25 25 26 24 26 24 25 25 28 29 31 31 32 34 35 36 36 36 37 37 37 37
50 40 38 36 31 28 24 24 25 24 23 26 27 27 29 30 28 27 28 29 30 33 34 36 38 39 39 40 41 42 43 43 43
41 36 35 32 29 27 27 27 28 30 29 28 31 34 34 34 35 35 36 37 38 41 42 42 44 45 45 45 45 45 47 48 48
36 34 33 29 29 30 31 31 32 34 33 34 34 36 37 39 39 40 41 44 45 48 46 46 47 48 46 46 46 49 52 53 52
36 35 34 31 32 34 34 34 35 36 37 36 38 39 41 43 46 47 47 49 51 52 53 53 56 57 53 53 54 53 58 57 58
36 35 35 34 33 35 37 38 40 40 40 42 43 43 46 47 51 53 52 53 54 56 58 60 62 62 62 60 56 60 63 63 63
36 36 37 37 38 40 41 43 42 44 44 47 46 49 51 54 51 55 55 55 55 58 59 60 62 63 65 64 64 66 68 69 69
Wind_Direction
300 297 297 296 294 291 289 293 294 294 293 291 289 288 286 286 286 284 283 278 273 266 263 262 259 259 259 258 256 256 257 258 258
300 295 292 291 290 290 288 286 290 292 291 291 287 285 285 285 285 283 280 278 276 273 269 264 258 258 258 257 256 256 256 256 256
297 293 291 289 291 290 291 288 289 291 290 287 287 286 286 285 281 280 281 277 275 273 270 268 264 259 256 254 256 257 256 256 256
297 292 289 290 292 292 296 294 292 292 294 292 289 287 287 287 286 284 282 277 274 272 269 266 264 262 259 257 257 257 256 256 256
297 293 291 291 292 293 296 297 294 292 292 292 289 288 287 287 285 283 282 279 278 276 272 268 264 263 261 260 258 256 257 258 259
294 295 294 294 295 295 295 295 294 290 287 286 284 284 285 285 285 283 281 278 275 273 270 267 266 264 260 259 260 259 259 259 257
295 296 299 296 296 296 295 294 293 289 287 286 285 286 286 287 287 284 281 278 275 273 271 269 267 264 261 260 259 259 259 258 258
300 301 301 300 297 296 296 297 294 290 287 287 288 290 290 288 284 282 280 279 278 276 274 271 270 267 265 262 260 260 260 259 258
301 300 301 301 301 300 304 306 299 293 292 291 291 290 291 293 293 292 293 291 288 283 279 274 271 270 268 265 264 259 257 257 258
304 307 309 309 310 306 304 309 311 305 301 299 299 298 296 293 291 290 288 288 288 287 285 282 278 274 272 269 268 266 263 260 259
310 313 313 313 311 307 309 310 311 307 302 296 292 290 286 284 282 283 283 283 282 282 281 279 277 277 276 276 273 271 269 267 264
317 316 315 309 308 307 303 301 296 294 292 289 291 297 302 302 303 304 302 301 296 296 291 287 285 282 281 280 279 276 275 272 271
315 316 310 308 306 302 296 299 306 312 317 324 326 328 327 327 326 322 320 319 317 315 311 309 305 302 298 295 293 290 284 278 273
312 311 309 309 309 312 313 323 330 329 328 327 329 326 321 321 314 314 312 312 313 312 309 308 307 305 302 300 296 294 291 290 287
310 305 309 313 316 316 321 328 330 328 333 330 326 326 325 324 318 310 308 306 306 304 303 302 301 301 301 300 298 296 294 291 287
303 303 308 310 310 316 320 324 326 326 325 324 324 322 320 319 318 317 315 315 314 313 309 310 309 307 304 300 302 302 299 294 290
294 299 304 303 304 307 311 316 319 317 318 318 317 317 318 316 313 312 313 314 311 308 306 305 306 305 303 303 302 302 304 301 296
287 294 298 299 295 302 309 310 311 314 313 314 316 314 314 315 311 310 308 305 302 303 302 299 300 300 298 297 298 299 301 298 298
282 288 293 293 294 300 302 304 307 308 309 311 309 308 308 309 308 307 308 307 307 307 306 304 302 299 295 293 293 296 294 294 294
281 285 289 291 289 296 298 303 306 305 306 306 305 306 305 306 307 308 308 307 306 306 307 305 306 303 295 292 290 290 292 292 291